Find Starlink 3617

NORAD ID: 51780 Int'l Des: 2022-017 Owner: SPXS Country: US Constellation: starlink operational
LEOCIRCULAR

Live Position

Loading 3D Globe...

About Starlink 3617

Description loading...

Upcoming Passes

Passes for default location (London). Set your location on the main map for personalized predictions.

Altitude History

Loading altitude history...

Two-Line Element Set

1 51780U 22017N 26127.26539758 -.00000305 00000-0 -10977-5 0 9995
2 51780 53.2169 76.1527 0001335 88.8532 271.2613 15.08834941231262
Epoch: May 7, 2026 • Age: 23 hours

Current Status

Altitude 558.0 km
Velocity 7.58 km/s
Sub-Earth Point -50.22°S, 2.83°E
Launch Date Feb 25, 2022
Age 4.1 years
Type internet

Technical Details

Classification Payload
Mass 297.00 kg
Dry Mass 275.00 kg
Total Mass 297.00 kg
Length 0.20 m
Diameter 2.80 m
Span 9.00 m
Shape Box + pan
Manufacturer SPXS
Bus Type Starlink
Phase Status In Orbit
Owner/State SPXS/US

Most Searched